RH
95 98 96 94 95 94 93 91 85 80 77 75 75 74 70 67 71 61 62 48 45 46
94 97 97 96 94 95 94 93 89 81 83 82 76 72 64 62 61 57 56 60 64 62
94 97 97 97 98 96 94 89 86 83 81 77 73 65 57 55 52 55 60 60 54 54
98 98 98 98 96 92 88 86 82 76 73 68 64 56 48 48 46 50 57 63 55 55
98 97 97 96 91 84 82 75 67 68 65 58 54 48 45 42 48 55 59 70 73 75
94 92 91 87 79 72 72 68 63 56 56 57 61 59 58 61 69 74 72 75 72 70
91 88 82 71 67 65 62 65 63 62 64 69 72 76 78 81 85 83 81 80 78 73
81 71 67 71 72 73 76 76 72 74 74 74 75 77 84 84 86 86 88 86 83 86
72 73 73 75 74 74 76 76 78 79 80 85 81 85 80 72 76 80 87 96 97 82
77 80 83 82 82 86 87 86 90 88 88 90 88 84 86 92 97 98 98 95 79 72
86 88 89 91 92 92 92 92 96 96 97 98 98 95 97 96 96 94 83 67 65 69
89 90 92 97 98 97 96 98 99 98 100 100 100 96 91 89 66 59 62 64 71 77
96 97 98 99 99 99 99 100 98 100 100 99 99 88 80 60 60 68 65 74 70 64
98 97 97 99 99 99 98 98 97 91 71 69 60 58 46 63 61 62 68 70 72 69
Wind_Speed
8 5 8 9 8 9 10 11 12 13 11 11 11 10 9 7 5 5 4 7 4 3
6 7 9 8 7 7 6 5 9 10 10 11 11 11 10 7 7 6 4 5 6 9
6 6 6 5 7 6 4 6 10 11 10 10 10 10 10 8 9 9 4 4 10 3
5 4 3 5 5 6 7 8 9 9 10 10 9 10 11 10 10 11 8 4 5 8
3 1 3 4 5 6 8 8 11 11 11 11 12 11 12 12 10 10 7 9 3 5
3 2 3 4 5 7 8 8 10 11 12 11 11 12 11 12 11 9 6 6 5 2
1 2 4 6 8 9 9 10 11 11 13 13 13 13 12 11 9 7 8 7 6 4
5 5 6 10 10 11 11 11 13 14 13 13 12 10 11 12 10 7 8 7 5 3
8 9 10 11 11 12 11 12 12 13 13 13 10 20 19 13 10 8 7 4 1 5
7 10 10 11 12 12 11 12 13 12 14 14 12 20 19 16 7 6 5 4 3 3
6 9 10 10 12 11 11 10 11 11 11 11 10 16 15 13 8 5 4 4 4 3
7 8 10 11 11 10 10 9 9 8 9 9 8 15 12 8 5 5 3 4 3 1
9 9 10 11 10 10 9 8 6 7 6 12 5 11 10 6 4 4 2 2 0 5
8 9 9 10 8 8 9 8 6 5 5 6 4 3 6 8 4 3 2 1 2 3
Wind_Direction
252 226 219 209 201 203 196 199 198 199 191 186 173 165 158 163 158 154 135 125 104 55
246 226 225 217 205 205 192 166 168 177 178 169 161 156 153 151 135 137 132 128 118 117
240 232 239 191 192 179 150 143 153 157 163 162 157 152 147 138 130 125 115 127 130 112
268 250 211 197 163 150 132 137 147 149 146 147 146 148 132 125 123 119 116 100 127 115
311 218 205 178 146 141 135 146 144 141 142 146 143 145 132 124 117 115 120 105 40 90
339 236 176 151 130 123 126 131 134 135 130 124 121 108 103 105 105 105 99 96 103 130
319 124 114 104 103 106 109 111 107 106 111 111 106 99 97 94 89 94 94 91 87 70
49 83 102 96 96 94 94 100 102 100 97 100 97 101 101 104 105 98 84 78 69 59
64 73 75 85 91 92 96 101 104 107 104 99 101 111 110 105 101 99 113 118 120 215
83 89 88 90 89 87 90 96 94 93 98 100 107 115 112 110 102 98 107 179 167 90
74 86 87 88 91 95 97 97 97 95 93 93 101 105 103 98 97 160 142 112 102 91
58 72 83 84 79 84 88 77 85 91 90 96 102 104 111 143 137 81 100 90 74 173
66 73 75 75 79 77 73 77 78 84 80 106 120 139 139 119 108 95 89 67 242 314
73 78 77 78 69 80 83 84 81 98 80 86 112 68 122 131 95 125 135 250 290 291